User: anonymous   Login
Location: Narvik
(68.4360°N, 17.4370°E)
Time: 05:18:45
(UTC+02:00)
Language:

DUCHIFAT 1 - Orbit

View from above orbital plane
View from above orbital plane
View from above satellite
View from above satellite

Ground track
Ground track

The orbit data is extracted from the following two-line orbital elements,

1 40021U 14033M   19233.78393765  .00000132  00000-0  19326-4 0  9995
2 40021  97.9226 158.5892 0012299 192.4985 167.5930 14.90661715281094
Epoch (UTC): 21 August 2019 18:48:52
Eccentricity: 0.0012299
inclination: 97.9226°
perigee height: 587 km
apogee height: 604 km
right ascension of ascending node: 158.5892°
argument of perigee: 192.4985°
revolutions per day: 14.90661715
mean anomaly at epoch: 167.5930°
orbit number at epoch: 28109

The dashed part of the orbit path shows where the satellite is in the earth's shadow,  

DLR